#timestamp,LO_Frequency,Hit,Temp,Hum 
1479128415.6,286047478.0,N,0.0,0.0
1479128435.4,286047481.9,N,0.0,0.0
1479128455.3,286047479.0,N,0.0,0.0
1479128475.1,286047477.0,N,0.0,0.0
1479128495.8,286047475.7,N,0.0,0.0
1479128515.7,286047477.2,N,0.0,0.0
1479128535.5,286047478.6,N,0.0,0.0
1479128555.4,286047479.4,N,0.0,0.0
1479128575.2,286047480.8,N,0.0,0.0
1479128595.0,286047478.6,N,0.0,0.0
1479128595.9,286047478.6,N,0.0,0.0
1479128615.8,286047477.9,N,0.0,0.0
1479128635.6,286047470.4,N,0.0,0.0
1479128655.4,286047477.8,N,0.0,0.0
1479128675.3,286047477.2,N,0.0,0.0
1479128695.1,286047477.7,N,0.0,0.0
1479128715.9,286047477.4,N,0.0,0.0
1479128735.7,286047477.0,N,0.0,0.0
1479128755.5,286047476.6,N,0.0,0.0
1479128775.4,286047476.7,N,0.0,0.0
1479128795.2,286047476.7,N,0.0,0.0
1479128815.0,286047473.4,N,0.0,0.0
1479128815.9,286047473.4,N,0.0,0.0
1479128835.8,286047479.4,N,0.0,0.0
1479128855.6,286047476.9,N,0.0,0.0
1479128875.5,286047479.1,N,0.0,0.0
1479128895.3,286047480.9,N,0.0,0.0
1479128915.1,286047478.1,N,0.0,0.0
1479128935.9,286047479.0,N,0.0,0.0
1479128955.7,286047482.3,N,0.0,0.0
1479128975.5,286047478.2,N,0.0,0.0
1479128995.4,286047476.8,N,0.0,0.0
1479129015.2,286047476.8,N,0.0,0.0
1479129035.0,286047472.4,N,0.0,0.0
1479129036.0,286047472.4,N,0.0,0.0
1479129055.8,286047478.8,N,0.0,0.0
1479129075.6,286047461.5,N,0.0,0.0
1479129095.5,286047479.3,N,0.0,0.0
1479129115.3,286047482.4,N,0.0,0.0
1479129135.1,286047476.8,N,0.0,0.0
1479129155.9,286047475.5,N,0.0,0.0
1479129175.7,286047476.0,N,0.0,0.0
1479129195.5,286047476.3,N,0.0,0.0
1479129215.4,286047474.9,N,0.0,0.0
1479129235.2,286047472.0,N,0.0,0.0
1479129255.1,286047471.4,N,0.0,0.0
1479129256.0,286047471.4,N,0.0,0.0
1479129275.8,286047468.9,N,0.0,0.0
1479129295.6,286047470.4,N,0.0,0.0
1479129315.5,286047463.0,N,0.0,0.0
1479129335.3,286047463.4,N,0.0,0.0
1479129355.2,286047477.2,N,0.0,0.0
1479129375.9,286047475.1,N,0.0,0.0
1479129395.7,286047478.0,N,0.0,0.0
1479129415.6,286047476.8,N,0.0,0.0
1479129435.4,286047476.6,N,0.0,0.0
1479129455.2,286047477.0,N,0.0,0.0
1479129475.1,286047474.7,N,0.0,0.0
1479129476.0,286047474.7,N,0.0,0.0
1479129495.8,286047476.0,N,0.0,0.0
1479129515.7,286047476.4,N,0.0,0.0
1479129535.5,286047486.9,N,0.0,0.0
1479129555.3,286047487.4,N,0.0,0.0
1479129575.2,286047487.0,N,0.0,0.0
1479129595.9,286047487.0,N,0.0,0.0
1479129615.7,286047487.0,N,0.0,0.0
1479129635.6,286047475.2,N,0.0,0.0
1479129655.4,286047474.1,N,0.0,0.0
1479129675.3,286047474.6,N,0.0,0.0
1479129695.1,286047470.5,N,0.0,0.0
1479129696.0,286047470.5,N,0.0,0.0
1479129715.8,286047353.0,N,0.0,0.0
1479129735.7,286047504.4,N,0.0,0.0
1479129755.5,286047492.3,N,0.0,0.0
1479129775.3,286047434.4,N,0.0,0.0
1479129795.2,286047461.5,N,0.0,0.0
1479129815.0,286047462.8,N,0.0,0.0
1479129815.9,286047462.8,N,0.0,0.0
1479129835.7,286047462.9,N,0.0,0.0
1479129855.6,286047462.8,N,0.0,0.0
1479129875.4,286047524.3,N,0.0,0.0
1479129895.3,286047461.8,N,0.0,0.0
1479129915.1,286047475.7,N,0.0,0.0
1479129916.0,286047475.7,N,0.0,0.0
1479129935.8,286047474.1,N,0.0,0.0
1479129955.7,286047477.4,N,0.0,0.0
1479129975.5,286047476.2,N,0.0,0.0
1479129995.3,286047471.5,N,0.0,0.0
1479130015.2,286047468.6,N,0.0,0.0
1479130035.0,286047471.3,N,0.0,0.0
1479130035.9,286047471.3,N,0.0,0.0
1479130055.8,286047468.5,N,0.0,0.0
1479130075.6,286047468.9,N,0.0,0.0
1479130095.4,286047474.3,N,0.0,0.0
1479130115.3,286047474.4,N,0.0,0.0
1479130135.1,286047474.3,N,0.0,0.0
1479130155.8,286047474.4,N,0.0,0.0
1479130175.7,286047472.3,N,0.0,0.0
1479130195.5,286047473.3,N,0.0,0.0
1479130215.4,286047475.4,N,0.0,0.0
1479130235.2,286047473.7,N,0.0,0.0
1479130255.0,286047474.8,N,0.0,0.0
1479130255.9,286047474.8,N,0.0,0.0
1479130275.8,286047474.2,N,0.0,0.0
1479130295.6,286047476.3,N,0.0,0.0
1479130315.4,286047473.4,N,0.0,0.0
1479130335.3,286047473.3,N,0.0,0.0
1479130355.1,286047473.6,N,0.0,0.0
1479130375.9,286047476.0,N,0.0,0.0
1479130395.7,286047473.3,N,0.0,0.0
1479130415.5,286047475.8,N,0.0,0.0
1479130435.4,286047477.4,N,0.0,0.0
1479130455.2,286047429.5,N,0.0,0.0
1479130475.0,286047427.2,N,0.0,0.0
1479130475.9,286047427.2,N,0.0,0.0
1479130495.8,286047427.8,N,0.0,0.0
1479130515.6,286047427.8,N,0.0,0.0
1479130535.5,286047425.7,N,0.0,0.0
1479130555.3,286047426.4,N,0.0,0.0
1479130575.1,286047423.9,N,0.0,0.0
1479130595.9,286047423.7,N,0.0,0.0
1479130615.7,286047425.1,N,0.0,0.0
1479130635.5,286047422.8,N,0.0,0.0
1479130655.4,286047422.4,N,0.0,0.0
1479130675.2,286047422.6,N,0.0,0.0
1479130695.0,286047422.9,N,0.0,0.0
1479130696.0,286047422.9,N,0.0,0.0
1479130715.8,286047423.1,N,0.0,0.0
1479130735.6,286047423.0,N,0.0,0.0
1479130755.5,286047422.6,N,0.0,0.0
1479130775.3,286047422.2,N,0.0,0.0
1479130795.1,286047425.1,N,0.0,0.0
1479130815.9,286047422.1,N,0.0,0.0
1479130835.7,286047422.5,N,0.0,0.0
1479130855.6,286047425.2,N,0.0,0.0
1479130875.4,286047424.2,N,0.0,0.0
1479130895.2,286047424.0,N,0.0,0.0
1479130915.1,286047426.4,N,0.0,0.0
1479130916.0,286047426.4,N,0.0,0.0
1479130935.8,286047424.2,N,0.0,0.0
1479130955.6,286047425.0,N,0.0,0.0
1479130975.5,286047470.6,N,0.0,0.0
1479130995.3,286047472.4,N,0.0,0.0
1479131015.2,286047472.9,N,0.0,0.0
1479131035.9,286047472.7,N,0.0,0.0
1479131055.7,286047470.4,N,0.0,0.0
1479131075.6,286047471.2,N,0.0,0.0
1479131095.4,286047470.2,N,0.0,0.0
1479131115.2,286047470.7,N,0.0,0.0
1479131135.1,286047470.8,N,0.0,0.0
1479131136.0,286047470.8,N,0.0,0.0
1479131155.8,286047472.8,N,0.0,0.0
1479131175.7,286047471.3,N,0.0,0.0
1479131195.5,286047470.8,N,0.0,0.0
1479131215.3,286047469.0,N,0.0,0.0
1479131235.2,286047471.5,N,0.0,0.0
1479131255.0,286047471.3,N,0.0,0.0
1479131255.9,286047471.3,N,0.0,0.0
1479131275.7,286047471.6,N,0.0,0.0
1479131295.6,286047468.5,N,0.0,0.0
1479131315.4,286047470.9,N,0.0,0.0
1479131335.3,286047470.3,N,0.0,0.0
1479131355.1,286047470.1,N,0.0,0.0
1479131356.0,286047470.1,N,0.0,0.0
1479131375.8,286047472.4,N,0.0,0.0
1479131395.7,286047471.8,N,0.0,0.0
1479131415.5,286047472.7,N,0.0,0.0
1479131435.3,286047472.9,N,0.0,0.0
1479131455.2,286047474.5,N,0.0,0.0
1479131475.0,286047473.9,N,0.0,0.0
1479131475.9,286047473.9,N,0.0,0.0
1479131495.8,286047474.5,N,0.0,0.0
1479131515.6,286047472.3,N,0.0,0.0
1479131535.4,286047472.3,N,0.0,0.0
1479131555.3,286047473.9,N,0.0,0.0
1479131575.1,286047457.6,N,0.0,0.0
1479131595.8,286047475.8,N,0.0,0.0
1479131615.7,286047472.3,N,0.0,0.0
1479131635.5,286047474.2,N,0.0,0.0
1479131655.3,286047471.9,N,0.0,0.0
1479131675.2,286047472.4,N,0.0,0.0
1479131695.0,286047474.4,N,0.0,0.0
1479131695.9,286047474.4,N,0.0,0.0
1479131715.8,286047474.3,N,0.0,0.0
1479131735.6,286047474.5,N,0.0,0.0
1479131755.4,286047474.1,N,0.0,0.0
1479131775.3,286047474.1,N,0.0,0.0
1479131795.1,286047471.9,N,0.0,0.0
1479131815.8,286047474.0,N,0.0,0.0
1479131835.7,286047474.1,N,0.0,0.0
1479131855.5,286047474.5,N,0.0,0.0
1479131875.4,286047473.9,N,0.0,0.0
1479131895.2,286047474.2,N,0.0,0.0
1479131915.0,286047473.9,N,0.0,0.0
1479131915.9,286047473.9,N,0.0,0.0
1479131935.8,286047476.0,N,0.0,0.0
1479131955.6,286047475.0,N,0.0,0.0
1479131975.4,286047472.2,N,0.0,0.0
1479131995.3,286047471.8,N,0.0,0.0
